Hourly Data Report for September 17, 2020

BRIER ISLAND
NOVA SCOTIA
Current Station Operator: ECCC - MSC

44°17'09.000" N
66°20'48.000" W
15.80 m
8200604
71988
WVU

Download Data

Hourly Data (September 2020)
Hourly Data Report for September 17, 2020
TIME Temp Definition
°C
Dew Point Definition
°C
Rel Hum Definition
%
Wind Dir Definition
10's deg

Wind Spd Definition
km/h
Visibility Definition
km
Stn Press Definition
kPa
Hmdx Definition


Wind Chill Definition


Weather Definition


00:00 13.7 13.4 98 17 22   101.67     LegendNANA
01:00 13.6 13.6 100 16 21   101.62     LegendNANA
02:00 13.4 13.4 100 16 23   101.56     LegendNANA
03:00 13.5 13.5 100 16 27   101.50     LegendNANA
04:00 13.8 13.8 100 16 23   101.49     LegendNANA
05:00 14.0 14.0 100 16 23   101.47     LegendNANA
06:00 13.8 13.8 100 16 22   101.48     LegendNANA
07:00 14.6 14.6 100 17 20   101.50     LegendNANA
08:00 15.5 15.4 99 17 23   101.51     LegendNANA
09:00 16.9 16.0 95 18 21   101.52     LegendNANA
10:00 18.1 16.2 89 17 17   101.51     LegendNANA
11:00 19.1 17.0 88 17 20   101.49     LegendNANA
12:00 18.6 16.2 86 16 23   101.45     LegendNANA
13:00 19.3 16.7 85 18 21   101.44     LegendNANA
14:00 18.6 16.8 89 18 20   101.37     LegendNANA
15:00 18.8 16.7 88 19 18   101.36     LegendNANA
16:00 18.2 16.3 89 18 16   101.36     LegendNANA
17:00 17.4 15.9 91 20 19   101.36     LegendNANA
18:00 16.0 15.5 97 19 10   101.38     LegendNANA
19:00 15.2 15.2 100 20 11   101.43     LegendNANA
20:00 14.5 14.5 100 21 8   101.46     LegendNANA
21:00 13.4 13.4 100 18 6   101.44     LegendNANA
22:00 13.8 13.8 100 23 7   101.45     LegendNANA
23:00 13.1 LegendMM LegendMM 28 4   101.43     LegendNANA

Notes on Data Quality.

Legend

  • E = Estimated
  • M = Missing
  • NA = Not Available*
  • [empty] = Indicates an unobserved value
Date modified: